TimeEDT,TemperatureF,Dew PointF,Humidity,Sea Level PressureIn,VisibilityMPH,Wind Direction,Wind SpeedMPH,Gust SpeedMPH,PrecipitationIn,Events,Conditions,WindDirDegrees,DateUTC
12:53 AM,30.0,19.9,66,30.23,10.0,Calm,Calm,-,N/A,,Overcast,0,2013-04-07 04:53:00
1:53 AM,30.9,18.0,59,30.19,10.0,SSE,3.5,-,N/A,,Overcast,150,2013-04-07 05:53:00
2:53 AM,30.9,19.9,64,30.16,10.0,Calm,Calm,-,N/A,,Clear,0,2013-04-07 06:53:00
3:53 AM,32.0,19.0,59,30.12,10.0,WNW,4.6,-,N/A,,Overcast,300,2013-04-07 07:53:00
4:53 AM,32.0,21.0,64,30.10,10.0,Calm,Calm,-,N/A,,Overcast,0,2013-04-07 08:53:00
5:53 AM,36.0,24.1,62,30.08,10.0,SE,9.2,-,0.00,Rain,Light Rain,140,2013-04-07 09:53:00
6:53 AM,36.0,23.0,59,30.06,10.0,SSE,15.0,-,0.00,Rain,Light Rain,160,2013-04-07 10:53:00
7:53 AM,39.9,17.1,40,30.02,10.0,SSE,15.0,27.6,0.00,,Overcast,160,2013-04-07 11:53:00
8:53 AM,39.9,21.0,47,29.98,10.0,SSE,15.0,-,N/A,,Overcast,150,2013-04-07 12:53:00
9:53 AM,44.1,19.9,38,29.95,10.0,South,13.8,-,N/A,,Partly Cloudy,170,2013-04-07 13:53:00
10:53 AM,46.0,23.0,40,29.92,10.0,SSE,21.9,31.1,N/A,,Scattered Clouds,160,2013-04-07 14:53:00
11:53 AM,48.9,26.1,41,29.88,10.0,SSE,18.4,26.5,N/A,,Clear,150,2013-04-07 15:53:00
12:53 PM,55.0,27.0,34,29.82,10.0,SSE,17.3,27.6,N/A,,Clear,160,2013-04-07 16:53:00
1:53 PM,55.0,25.0,31,29.80,10.0,South,24.2,38.0,N/A,,Clear,170,2013-04-07 17:53:00
2:53 PM,53.1,25.0,34,29.80,10.0,SSE,26.5,39.1,N/A,,Mostly Cloudy,160,2013-04-07 18:53:00
3:53 PM,54.0,28.9,38,29.79,10.0,South,21.9,28.8,0.00,,Overcast,170,2013-04-07 19:53:00
4:53 PM,55.9,30.9,39,29.77,10.0,South,15.0,28.8,N/A,,Partly Cloudy,170,2013-04-07 20:53:00
5:53 PM,57.0,28.0,33,29.76,10.0,South,23.0,29.9,N/A,,Clear,170,2013-04-07 21:53:00
6:53 PM,55.0,30.0,38,29.74,10.0,South,16.1,28.8,N/A,,Overcast,170,2013-04-07 22:53:00
7:53 PM,55.9,28.0,34,29.75,10.0,South,16.1,21.9,N/A,,Overcast,180,2013-04-07 23:53:00
8:53 PM,55.0,28.9,37,29.78,10.0,South,12.7,-,N/A,,Overcast,180,2013-04-08 00:53:00
9:53 PM,54.0,30.0,40,29.80,10.0,South,11.5,-,N/A,,Overcast,180,2013-04-08 01:53:00
10:53 PM,55.0,34.0,45,29.83,10.0,NW,8.1,-,N/A,,Overcast,310,2013-04-08 02:53:00
11:53 PM,51.1,34.0,52,29.88,10.0,WNW,9.2,18.4,N/A,,Overcast,290,2013-04-08 03:53:00